STARLINK-31421, 59218

Orbit data source: Space-Track

STARLINK-31421, 59218 is a payload satellite owned by SpaceX/Seattle (US) in LEO that was launched on Mon, 11 Mar 2024 UTC via an FALCON 9 launch vehicle from the Air Force Western Test Range (AFWTR). Payload-class satellites include a variety of spacecraft equipped with specific instruments for various scientific and technological missions. These include communications satellites like Starlink; space stations such as the ISS; scientific satellites like the Hubble; Earth observation satellites from companies like Planet Labs, Umbra, and HawkEye 360; GPS; miniature CubeSats for education and research; and military/defense satellites.

Loading next visibility...
Identifier
59218, 2024-046T
Orbit
LEO
Country
Flag of USUS
Related business
Manufacturer
SpaceX/Seattle
Mission
Operational Commercial Communications
Bus & Motor
STARLINK V2M, Unknown motor
Mass
730 kg wet, ~700 kg dry
Launch date (UTC)
2024-03-11 (2 years ago)
Launch vehicle
FALCON 9
Launch site
Air Force Western Test Range (AFWTR)
Object type
Payload
Rocket body
Debris
Shape & HBR
Box + 2 Pan, 17.7 m
Radar Cross Section
33.884 m², Large (>1 m²)

Expand to show TLE details & history
Last TLE update: 2 days ago

TLE from 2 days ago
0 STARLINK-31421
1 59218U 24046T   26171.34212784  .00001054  00000-0  42340-4 0  9996
2 59218  53.1606  36.6035 0000894  75.1792 284.9309 15.34377214128781
Epoch: 2026-06-20T08:12Z
TLE epoch observation values (Epoch: 2026-06-20T08:12:39.845Z)
Latitude
-0.00006°
Longitude
4.8793°
Altitude
463.515 km
Speed
7.636 km/s
True Right ascension
02h 26m 24s
True Declination
0° 00' 00"
Sunlit
Object was in daylight at epoch
Visualization orbit readout
Latitude
Unknown
Longitude
Unknown
Altitude
Unknown
Speed
Unknown
Apparent Right ascension
Unknown
Apparent Declination
Unknown
Sunlit
N/A
Visualization observer readout
Local Sidereal Time
21:30:48
Azimuth
Unknown
Elevation
Unknown
Doppler factor
Unknown
Orbital elements
Apogee altitude
463.639 km
Perigee altitude
462.416 km
Semi-major axis
6,841.165 km
Eccentricity
0.00009
Inclination
53.1606°
RAAN
36.6035°
Arg. of periapsis
75.1792°
True anomaly
284.921°
Mean anomaly
284.9309°
Eccentric anomaly
284.92595°
Mean motion
3.83573 °/min
Orbital period
93.85 mins
BSTAR
0.00004234
Loading maneuver chart data...
Computing Atmospheric mass density...
Loading historical data...
Loading historical data...
Loading historical data...
Loading historical data...
Loading historical data...
Loading historical data...
Loading historical data...

Documentation

Showing up to 5 results
|